Powrót do katalogu

BLOCK DM-SL R/B

AktywnyGTO
NORAD 27446·ROCKET BODY· XX

Wystrzelony Jun 15, 2002 z Sea Launch Platform

Loading…

TLE

Starzejące sięSource: Space-Track

Epoka: Sep 14, 2026, 09:10 UTC

1 27446U 02030B   26257.38254731 -.00000073  00000-0  84579-3 0  9990
2 27446   1.0495  44.3456 7487268 286.9419   9.7195  1.96283287172457

Śledź BLOCK DM-SL R/B w czasie rzeczywistym z AllMySat

Download on the App Store